Location: Unspecified
(0.0000°N, 0.0000°E)
Time: 09:03:17
(UTC+00:00)

Vanguard 2 - Pass Details

Date: 22 October 2021
Orbit: 554 x 2936 km, 32.9° (Epoch: 06 December)

Event Time Altitude Azimuth Distance (km) Brightness Sun altitude
Rises 13:57:03 0° 237° (WSW) 3,786 11.6 55.2°
Reaches altitude 10° 14:03:51 10° 193° (SSW) 3,545 11.3 53.6°
Maximum altitude 14:04:26 10° 189° (S) 3,600 11.3 53.5°
Drops below altitude 10° 14:05:01 10° 185° (S) 3,666 11.3 53.3°
Sets 14:14:40 0° 145° (SE) 5,581 11.8 51.0°
